リニア彗星

P/2002 T5 ( LINEAR )

English version
Home page
Updated on January 21, 2006

---------------------------------------------------------------------

・ プロフィール

発見日 2002年10月5日
発見光度 18.4等
発見者 Lincoln Laboratory Near-Earth Asteroid Research project

・ 軌道要素

The following orbital elements are taken from MPC 53465:

Epoch 2003 June 10.0 TT = JDT 2452800.5
T 2003 June 27.8664 TT                                  MPC
q   3.934087             (2000.0)            P               Q
n   0.0533952      Peri.  326.7606      -0.0666257      -0.9007838
a   6.984491       Node   123.3313      +0.9902337      -0.1124826
e   0.436740       Incl.   30.9047      +0.1224676      +0.4194475
P  18.5
From 965 observations 2002 Oct. 5-2005 Jan. 16, mean residual 0".6.

・ 星図

・ 光度変化

        m1 = 8.0 + 5 logΔ + 10.0 log r

---------------------------------------------------------------------

軌道要素はMPCのEphemerides and Orbital Elementsに掲載されたものです。
星図は StellaNavigator Ver.2.0 for Windows (アストロアーツ 編著 / アスキー出版局刊) で作成したものです。
光度グラフはComet for Windowsで作成したものです。

---------------------------------------------------------------------

Copyright(C) Seiichi Yoshida (comet@aerith.net). All rights reserved.